Home > Weather > Nome > Past weeks

Flag for USA Past Weather in Nome, Alaska, USA — Yesterday and Last 2 Weeks

Now
49 °F

Partly cloudy.


Feels Like: 45 °F
Forecast: 50 / 56 °F
Wind: 8 mph from West

Location: Nome Airport

Current Time: Jun 26, 2016 at 6:02:58 AM

Latest Report: Jun 26, 2016 at 4:53 AM


Visibility: 10 mi

Pressure: 29.91 "Hg

Humidity: 93%

Dew Point: 47 °F

Location of NomeLocation

Past Weather in Nome — Graph

°F

Nome Temperature Yesterday

Maximum temperature yesterday: 74 °F (at 6:53 PM)
Minimum temperature yesterday: 49 °F (at 4:53 AM)
Average temperature yesterday: 60 °F

High & Low Weather Summary for the Past Weeks

 TemperatureHumidityPressure
High76 °F (Jun 16, 9:53 PM)100% (Jun 13, 6:53 AM)30.22 "Hg (Jun 13, 6:53 AM)
Low38 °F (Jun 12, 7:53 AM)32% (Jun 25, 6:53 PM)29.47 "Hg (Jun 17, 8:53 AM)
Average49 °F84%29.89 "Hg
* Reported Jun 11 4:53 AM — Jun 26 4:53 AM, Nome, Weather by CustomWeather, © 2016

Note: Actual official high and low records may vary slightly from our data, if they occured in-between our weather recording intervals... More about our weather records

Advertising

Nome Weather History for the Previous 24 Hours

Scroll right to see more
 ConditionsComfort  
Time TempWeatherWind HumidityBarometerVisibility
4:53 AM
Sun, Jun 26
49 °FPartly cloudy.8 mph93%29.91 "Hg10 mi
3:53 AM51 °FPassing clouds.8 mph77%29.92 "Hg10 mi
2:53 AM52 °FPartly sunny.7 mph72%29.92 "Hg10 mi
1:53 AM55 °FPartly sunny.8 mph64%29.92 "Hg10 mi
12:53 AM58 °FPartly sunny.12 mph58%29.92 "Hg10 mi
11:53 PM
Sat, Jun 25
63 °FSunny.13 mph45%29.92 "Hg10 mi
10:53 PM65 °FSunny.15 mph42%29.91 "Hg10 mi
9:53 PM67 °FSunny.18 mph41%29.90 "Hg10 mi
8:53 PM70 °FSunny.20 mph39%29.89 "Hg10 mi
7:53 PM73 °FSunny.20 mph34%29.89 "Hg10 mi
6:53 PM74 °FSunny.15 mph32%29.90 "Hg10 mi
5:53 PM67 °FSunny.15 mph45%29.90 "Hg10 mi
4:53 PM62 °FSunny.9 mph54%29.92 "Hg10 mi
3:53 PM60 °FSunny.8 mph62%29.92 "Hg10 mi
2:53 PM57 °FSunny.14 mph67%29.93 "Hg10 mi
1:53 PM60 °FSunny.12 mph60%29.93 "Hg10 mi
12:53 PM62 °FSunny.12 mph52%29.94 "Hg10 mi
11:53 AM60 °FSunny.10 mph52%29.94 "Hg10 mi
10:53 AM60 °FSunny.7 mph53%29.94 "Hg10 mi
9:53 AM60 °FSunny.5 mph58%29.94 "Hg10 mi
8:53 AM58 °FSunny.3 mph62%29.94 "Hg10 mi
7:53 AM53 °FScattered clouds.3 mph74%29.93 "Hg10 mi
6:53 AM50 °FScattered clouds.No wind77%29.93 "Hg10 mi
Weather by CustomWeather, © 2016

See weather overviewHow to use our weather pages